Satellite: HRBE Catalog number: 37855 Epoch time: 13360.82291359 Element set: 674 Inclination: 101.7090 deg RA of node: 304.8260 deg Eccentricity: 0.0227423 Arg of perigee: 192.9396 deg Mean anomaly: 198.8992 deg Mean motion: 14.86581895 rev/day Decay rate: 4.449e-05 rev/day^2 Epoch rev: 11704 Checksum: 340
Satellite: RS-39 Catalog number: 38051 Epoch time: 13360.72650463 Element set: 101 Inclination: 051.6350 deg RA of node: 356.8952 deg Eccentricity: 0.0006541 Arg of perigee: 246.1919 deg Mean anomaly: 099.8792 deg Mean motion: 15.40724548 rev/day Decay rate: 3.0644e-04 rev/day^2 Epoch rev: 10736 Checksum: 309
Satellite: E-STAR Catalog number: 38079 Epoch time: 13360.87902956 Element set: 687 Inclination: 069.4686 deg RA of node: 072.7277 deg Eccentricity: 0.0518677 Arg of perigee: 238.3289 deg Mean anomaly: 243.7015 deg Mean motion: 14.71164191 rev/day Decay rate: 8.9204e-04 rev/day^2 Epoch rev: 9781 Checksum: 360
Satellite: GOLIAT Catalog number: 38085 Epoch time: 13360.72787836 Element set: 661 Inclination: 069.4748 deg RA of node: 077.1649 deg Eccentricity: 0.0532983 Arg of perigee: 240.4906 deg Mean anomaly: 114.2105 deg Mean motion: 14.67837155 rev/day Decay rate: 8.8304e-04 rev/day^2 Epoch rev: 9768 Checksum: 346
Satellite: HORYU-2 Catalog number: 38340 Epoch time: 13360.44163728 Element set: 711 Inclination: 098.2413 deg RA of node: 310.0714 deg Eccentricity: 0.0013008 Arg of perigee: 008.7267 deg Mean anomaly: 351.4147 deg Mean motion: 14.71595669 rev/day Decay rate: 2.028e-05 rev/day^2 Epoch rev: 8638 Checksum: 286
Satellite: RS-40 Catalog number: 38736 Epoch time: 13360.62399892 Element set: 460 Inclination: 082.4798 deg RA of node: 035.1408 deg Eccentricity: 0.0020170 Arg of perigee: 266.1924 deg Mean anomaly: 093.6859 deg Mean motion: 12.42875152 rev/day Decay rate: 1.0e-07 rev/day^2 Epoch rev: 6415 Checksum: 306
Satellite: PROITERES Catalog number: 38756 Epoch time: 13360.78922920 Element set: 427 Inclination: 098.2391 deg RA of node: 081.2457 deg Eccentricity: 0.0011815 Arg of perigee: 208.1578 deg Mean anomaly: 151.8979 deg Mean motion: 14.74543171 rev/day Decay rate: 1.053e-05 rev/day^2 Epoch rev: 6977 Checksum: 323
Satellite: BEESAT-3 Catalog number: 39134 Epoch time: 13359.88461023 Element set: 457 Inclination: 064.8795 deg RA of node: 325.8296 deg Eccentricity: 0.0010506 Arg of perigee: 332.2216 deg Mean anomaly: 027.8123 deg Mean motion: 15.02303627 rev/day Decay rate: 8.181e-05 rev/day^2 Epoch rev: 3760 Checksum: 292
Satellite: BEESAT-2 Catalog number: 39136 Epoch time: 13360.29820013 Element set: 445 Inclination: 064.8786 deg RA of node: 324.6416 deg Eccentricity: 0.0010245 Arg of perigee: 331.6247 deg Mean anomaly: 028.4312 deg Mean motion: 15.02061115 rev/day Decay rate: 6.596e-05 rev/day^2 Epoch rev: 3766 Checksum: 277
Satellite: CAPE-1 Catalog number: 39380 Epoch time: 13360.54184986 Element set: 49 Inclination: 040.5181 deg RA of node: 037.9310 deg Eccentricity: 0.0004522 Arg of perigee: 214.6996 deg Mean anomaly: 145.3532 deg Mean motion: 15.21214882 rev/day Decay rate: 4.579e-05 rev/day^2 Epoch rev: 556 Checksum: 294
Satellite: TRLBLAZER Catalog number: 39382 Epoch time: 13360.18849218 Element set: 51 Inclination: 040.5057 deg RA of node: 039.6021 deg Eccentricity: 0.0001850 Arg of perigee: 178.7581 deg Mean anomaly: 181.2937 deg Mean motion: 15.23435829 rev/day Decay rate: 3.0808e-04 rev/day^2 Epoch rev: 550 Checksum: 287
Satellite: TECHEDST3 Catalog number: 39415 Epoch time: 13360.74493480 Element set: 69 Inclination: 051.6447 deg RA of node: 231.9368 deg Eccentricity: 0.0008134 Arg of perigee: 206.3485 deg Mean anomaly: 264.8930 deg Mean motion: 15.70265586 rev/day Decay rate: 3.87053e-03 rev/day^2 Epoch rev: 567 Checksum: 322
Satellite: ZACUBE-1 Catalog number: 39417 Epoch time: 13360.63607761 Element set: 111 Inclination: 097.7957 deg RA of node: 072.1178 deg Eccentricity: 0.0064924 Arg of perigee: 082.7712 deg Mean anomaly: 278.0852 deg Mean motion: 14.77262226 rev/day Decay rate: 1.988e-05 rev/day^2 Epoch rev: 521 Checksum: 313
Satellite: TRITON-1 Catalog number: 39427 Epoch time: 13360.18744354 Element set: 29 Inclination: 097.7860 deg RA of node: 070.9872 deg Eccentricity: 0.0121084 Arg of perigee: 080.6239 deg Mean anomaly: 280.8528 deg Mean motion: 14.64684783 rev/day Decay rate: 1.614e-05 rev/day^2 Epoch rev: 506 Checksum: 316
Satellite: DELFIN3XT Catalog number: 39428 Epoch time: 13359.90648819 Element set: 31 Inclination: 097.7871 deg RA of node: 070.5852 deg Eccentricity: 0.0132459 Arg of perigee: 081.4098 deg Mean anomaly: 280.1961 deg Mean motion: 14.62161864 rev/day Decay rate: 2.705e-05 rev/day^2 Epoch rev: 500 Checksum: 312
Satellite: GOMX-1 Catalog number: 39430 Epoch time: 13360.73548014 Element set: 79 Inclination: 097.7814 deg RA of node: 071.0379 deg Eccentricity: 0.0159501 Arg of perigee: 078.9609 deg Mean anomaly: 282.9455 deg Mean motion: 14.56144096 rev/day Decay rate: 1.377e-05 rev/day^2 Epoch rev: 511 Checksum: 313
Satellite: $50SAT Catalog number: 39436 Epoch time: 13360.74321318 Element set: 33 Inclination: 097.7983 deg RA of node: 072.6000 deg Eccentricity: 0.0030721 Arg of perigee: 096.3968 deg Mean anomaly: 264.0383 deg Mean motion: 14.84543303 rev/day Decay rate: 1.3041e-04 rev/day^2 Epoch rev: 524 Checksum: 278
Satellite: PUCPSAT-1 Catalog number: 39442 Epoch time: 13359.78328743 Element set: 22 Inclination: 097.8008 deg RA of node: 071.7045 deg Eccentricity: 0.0037129 Arg of perigee: 094.2825 deg Mean anomaly: 266.2611 deg Mean motion: 14.84827221 rev/day Decay rate: 3.375e-05 rev/day^2 Epoch rev: 388 Checksum: 307
/EX
participants (1)
-
Ray Hoad